Regional Weather Roundup
Issued by NWS

Home | Current Version | Previous Version | Text Only | Print | Product List | Glossary Off
Versions: 1 2 3 4 5 6 7 8 9 10 11 12 13 14 15 16 17 18 19 20 21 22 23 24 25 26 27 28 29 30 31 32 33 34 35 36 37 38 39 40 41 42 43 44 45 46 47 48 49 50

763
ASUS44 KLIX 261401
RWRLA
LOUISIANA WEATHER ROUNDUP
NATIONAL WEATHER SERVICE NEW ORLEANS LA
800 AM CST WED NOV 26 2014

NOTE: "FAIR" INDICATES FEW OR NO CLOUDS BELOW 12,000 FEET WITH NO
      SIGNIFICANT WEATHER AND/OR OBSTRUCTIONS TO VISIBILITY.
      SKY/WX - SKY CONDITION AND SIGNIFICANT WEATHER.
      TMP - AIR TEMPERATURE.    DP   - DEWPOINT TEMPERATURE.
      RH  - RELATIVE HUMIDITY.  PRES - PRESSURE.
      HX  - HEAT INDEX.         WCI  - WIND CHILL INDEX.

*  THESE STATIONS ARE NOT NWS OR FAA STATIONS AND ARE NOT UNDER
   NWS QUALITY CONTROL.

LAZ040-048-061>063-065-066-069-261500-
SOUTHEAST LOUISIANA

CITY           SKY/WX    TMP DP  RH WIND       PRES   REMARKS
N.O. AUDUBON     N/A     48  39  70 MISG        N/A
N.O. INTL ARPT MOSUNNY   45  39  79 S5        30.28R
N.O. LAKEFRONT SUNNY     48  39  71 S6        30.28R
N.O. DOWNTOWN* FAIR      46  34  61 S5        30.28R
SLIDELL        SUNNY     39  34  82 CALM      30.27R
BATON ROUGE    SUNNY     38  35  89 CALM      30.26R
BOOTHVILLE     SUNNY     51  39  63 VRB3      30.29R
BELLE CHASSE   MOSUNNY   44  39  82 VRB3      30.28R
BOGALUSA*        N/A     36  33  88 CALM      30.28R
NEW ROADS*     NOT AVBL
GONZALES*      NOT AVBL
HAMMOND*       NOT AVBL
HOUMA*         NOT AVBL
PORT FOURCHON* SUNNY     50  39  66 CALM      30.32R

$$

LAZ041-044-053-054-261500-
SOUTHWEST LOUISIANA

CITY           SKY/WX    TMP DP  RH WIND       PRES   REMARKS
LAKE CHARLES   SUNNY     49  48  97 CALM      30.24R
LAFAYETTE      SUNNY     47  41  80 S6        30.26R
PATTERSON      SUNNY     43  39  87 CALM      30.30R
SALT POINT       N/A     59  49  69 CALM      30.27R
NEW IBERIA     SUNNY     43  41  93 CALM      30.27R
CHENAULT AIRPK NOT AVBL

$$

LAZ027-028-261500-
CENTRAL LOUISIANA

CITY           SKY/WX    TMP DP  RH WIND       PRES   REMARKS
FORT POLK      SUNNY     44  40  87 S6        30.20S
ALEXANDRIA INT SUNNY     46  40  79 SW10      30.19S
ALEXANDRIA     SUNNY     37  34  89 CALM      30.21R

$$

LAZ001-002-261500-
NORTHWEST LOUISIANA

CITY           SKY/WX    TMP DP  RH WIND       PRES   REMARKS
SHREVEPORT     MOSUNNY   47  34  60 SW14      30.09F
BARKSDALE AFB  SUNNY     47  34  60 SW8       30.10F
DTN SHREVEPORT SUNNY     48  32  53 SW14      30.10F

$$

LAZ014-016-261500-
NORTHEAST LOUISIANA

CITY           SKY/WX    TMP DP  RH WIND       PRES   REMARKS
MONROE         SUNNY     39  35  86 S5        30.16F
TALLULAH       SUNNY     39  34  82 S8        30.20F WCI  33

$$




USA.gov is the U.S. government's official web portal to all federal, state and local government web resources and services.